Date/Time (UTC),ProbHail,ProbWind,ProbTor,MESH,VIL Density,Flash Rate,Max Flash Density,LJA sigma-level,Max 0-2km AzShear,LLAZ 98th%,MLAZ 98th%,MUCAPE,MLCAPE,CAPE -10C to -30C,MLCIN,SRH 0-1km AGL,EBShear,MeanWind 0-1km AGL,Norm. Sat. Growth Rate,PWAT,WBZ,AvgBeamHgt,size
2019/05/28 03:50,30,93,92,0.75,2.40,40,0.60,0.0,25,17,14,1612,1180,430,28,304,52.8,39.1,0,1.7,3108.96,320.0,346
2019/05/28 03:52,39,97,93,0.95,2.50,40,0.62,0.0,25,17,14,1688,1246,424,14,334,55.1,41.0,0,1.7,3352.8,330.0,371
2019/05/28 03:54,56,97,93,0.97,2.50,64,0.93,0.0,25,18,12,1664,1244,418,14,334,55.0,41.2,0,1.7,3291.84,350.0,358
2019/05/28 03:56,56,97,93,0.97,2.50,64,0.93,0.0,25,20,12,1649,1245,417,13,335,55.0,41.4,0,1.7,3261.36,370.0,313
2019/05/28 03:58,59,95,93,1.03,2.50,64,0.93,0.0,25,20,12,1642,1245,416,13,335,54.9,41.4,0,1.7,3261.36,380.0,308
2019/05/28 04:00,61,95,93,1.03,2.50,64,0.93,0.0,25,20,11,1606,1243,408,13,344,54.6,41.6,0,1.7,3200.4,410.0,280
2019/05/28 04:02,59,97,93,1.03,2.50,61,0.93,0.0,25,20,11,1591,1243,406,13,347,54.5,41.6,0,1.7,3169.92,420.0,285
2019/05/28 04:04,46,97,93,0.94,2.40,53,0.93,0.0,22,17,11,1579,1243,404,13,351,54.4,41.7,0,1.7,3169.92,430.0,303
2019/05/28 04:06,42,97,93,0.94,2.40,42,0.93,1.2,22,17,14,1542,1243,395,13,360,54.0,41.8,0,1.7,3108.96,460.0,259
2019/05/28 04:08,37,95,93,0.88,2.30,41,0.93,0.0,22,17,14,1528,1240,391,14,362,54.0,41.8,0,1.7,3108.96,480.0,259
2019/05/28 04:10,40,95,93,0.86,2.50,48,0.93,2.1,22,17,14,1526,1237,389,14,363,53.9,41.9,0,1.7,3108.96,480.0,269
2019/05/28 04:12,36,95,93,0.83,2.50,48,0.93,0.0,22,17,10,1486,1223,377,16,371,53.7,41.8,0,1.7,3108.96,520.0,267
2019/05/28 04:14,36,95,93,0.83,2.50,48,0.93,0.0,22,17,10,1477,1221,374,16,373,53.5,41.9,0,1.7,3108.96,530.0,252
2019/05/28 04:16,32,90,92,0.79,2.20,48,0.93,0.4,18,14,10,1456,1212,368,18,376,53.3,41.9,0,1.7,3108.96,550.0,246
2019/05/28 04:18,28,90,92,0.79,2.20,37,0.93,0.5,18,14,10,1417,1191,356,21,381,53.2,41.7,0,1.7,3139.4400000000005,590.0,252
2019/05/28 04:20,21,85,92,0.69,2.20,37,0.93,0.0,18,13,8,1405,1185,353,22,382,53.1,41.7,0,1.7,3139.4400000000005,600.0,245
2019/05/28 04:22,18,89,89,0.64,2.20,37,0.93,0.2,15,12,8,1386,1173,346,23,383,53.0,41.6,0,1.7,3139.4400000000005,630.0,253
2019/05/28 04:24,20,89,82,0.63,2.20,44,0.93,2.9,14,12,7,1344,1137,333,27,382,53.0,41.3,0,1.7,3139.4400000000005,680.0,255
2019/05/28 04:26,20,80,82,0.63,2.20,44,0.77,0.0,16,12,7,1338,1132,332,27,382,53.0,41.2,0,1.7,3139.4400000000005,690.0,265
2019/05/28 04:28,20,85,76,0.63,2.20,44,0.73,0.2,16,12,6,1311,1109,325,29,382,53.1,41.0,0,1.7,3139.4400000000005,720.0,266
2019/05/28 04:30,35,85,76,0.81,2.30,44,0.76,0.7,16,12,5,1276,1077,315,31,381,53.2,40.6,0,1.7,3169.92,760.0,240
2019/05/28 04:32,47,94,69,0.96,2.50,46,0.76,0.3,16,12,4,1269,1071,314,32,381,53.3,40.5,0,1.7,3169.92,770.0,246
2019/05/28 04:34,47,91,65,0.98,2.50,46,0.76,0.0,16,11,4,1243,1049,305,33,381,53.5,40.2,0,1.7,3169.92,820.0,234
2019/05/28 04:36,47,91,52,0.98,2.50,46,0.76,0.0,12,11,5,1218,1029,296,34,381,53.6,39.9,0,1.7,3169.92,860.0,223
2019/05/28 04:38,47,88,52,0.98,2.30,46,0.76,1.0,12,11,4,1221,1031,299,34,382,53.7,39.9,0,1.7,3169.92,850.0,203
2019/05/28 04:40,30,85,67,0.79,2.30,40,0.76,0.0,12,11,8,1180,993,280,36,382,54.0,39.4,0,1.7,3169.92,920.0,222
2019/05/28 04:42,34,90,66,0.76,2.30,48,0.78,2.1,12,11,8,1166,979,271,36,383,54.2,39.2,0,1.7,3169.92,950.0,201
2019/05/28 04:44,26,85,66,0.67,2.30,48,0.78,0.0,12,11,8,1155,969,266,37,385,54.4,39.1,0,1.7,3169.92,970.0,218
2019/05/28 04:46,30,90,59,0.65,2.10,58,0.78,2.3,12,10,8,1117,938,248,39,393,54.8,38.4,0,1.7,3200.4,1070.0,353
2019/05/28 04:48,30,85,53,0.65,2.10,58,0.78,0.0,12,9,8,1108,931,243,40,395,54.8,38.3,0,1.7,3200.4,1090.0,365
2019/05/28 04:50,26,85,53,0.63,1.90,58,0.78,0.0,12,9,7,1111,928,242,40,396,54.8,38.3,0,1.7,3200.4,1080.0,209
2019/05/28 04:52,26,85,77,0.63,1.80,58,0.78,0.3,19,14,3,1082,917,234,41,401,54.8,37.8,0,1.7,3200.4,1150.0,207
2019/05/28 04:54,25,81,74,0.63,1.80,55,0.78,1.3,19,14,6,1051,909,228,42,404,54.7,37.4,0,1.7,3169.92,1220.0,362
2019/05/28 04:56,17,78,82,0.57,1.80,55,0.78,0.0,19,14,7,1300,1227,358,24,408,52.4,41.4,0,1.8,3383.28,1210.0,214
2019/05/28 04:58,14,80,85,0.53,1.90,55,0.78,0.1,15,12,8,1281,1211,355,26,415,52.5,41.5,0,1.8,3352.8,1250.0,208
2019/05/28 05:00,14,89,85,0.53,1.90,55,0.78,0.0,24,14,8,1276,1208,353,26,417,52.5,41.5,0,1.8,3352.8,1270.0,204
2019/05/28 05:02,7,73,85,0.53,1.90,29,0.78,0.6,24,14,6,1267,1200,351,27,421,52.5,41.5,0,1.8,3322.32,1310.0,200
2019/05/28 05:04,10,66,85,0.55,2.00,31,0.78,0.1,24,16,8,1257,1189,345,28,428,52.4,41.6,0,1.8,3261.36,1370.0,209
2019/05/28 05:06,13,81,85,0.61,2.20,32,0.78,0.1,24,16,7,1252,1181,339,29,431,52.3,41.5,0,1.8,3200.4,1450.0,381
2019/05/28 05:08,15,81,84,0.61,2.20,34,0.78,0.3,24,16,7,1249,1176,335,29,433,52.2,41.5,0,1.7,3200.4,1480.0,360
2019/05/28 05:10,15,78,81,0.61,2.20,34,0.78,0.0,24,11,6,1246,1172,332,31,435,52.1,41.5,0,1.7,3169.92,1520.0,346
2019/05/28 05:12,11,78,75,0.54,2.00,34,0.78,0.0,17,9,8,1244,1169,329,31,436,52.1,41.5,0,1.7,3169.92,1540.0,297
2019/05/28 05:14,11,78,72,0.54,1.80,34,0.69,0.0,17,9,7,1241,1164,326,32,437,52.0,41.4,0,1.7,3139.4400000000005,1570.0,324
2019/05/28 05:16,14,78,61,0.59,1.70,37,0.78,4.5,12,9,7,1240,1162,325,32,441,52.1,41.4,0,1.7,3169.92,1570.0,202
2019/05/28 05:18,14,83,92,0.59,1.70,39,0.78,0.4,19,12,11,1240,1162,325,32,441,52.1,41.4,0,1.7,3139.4400000000005,1580.0,209
2019/05/28 05:20,14,83,91,0.59,1.90,39,0.78,0.0,19,12,10,1235,1155,321,33,439,51.9,41.3,0,1.7,3139.4400000000005,1650.0,210
2019/05/28 05:22,17,87,91,0.62,2.10,39,0.78,0.0,16,12,10,1230,1150,319,33,438,51.7,41.2,0,1.7,3139.4400000000005,1690.0,217
2019/05/28 05:24,17,87,89,0.62,2.10,39,0.78,0.7,19,12,7,1227,1146,317,34,437,51.6,41.1,0,1.7,3139.4400000000005,1720.0,231
2019/05/28 05:26,14,81,88,0.62,2.10,32,0.78,0.1,19,12,6,1218,1135,314,36,433,51.4,40.9,0,1.7,3139.4400000000005,1800.0,338
2019/05/28 05:28,14,78,76,0.60,2.10,32,0.78,0.0,19,12,7,1217,1135,313,35,434,51.3,40.9,0,1.7,3139.4400000000005,1810.0,206
2019/05/28 05:30,12,78,76,0.60,2.10,32,0.78,0.0,19,12,7,1214,1130,313,36,431,51.2,40.8,0,1.7,3139.4400000000005,1850.0,211
2019/05/28 05:32,12,76,80,0.55,2.10,32,0.78,0.0,19,12,8,1208,1123,311,37,427,51.1,40.6,0,1.7,3139.4400000000005,1910.0,214
2019/05/28 05:34,10,73,47,0.57,2.10,30,0.78,2.5,11,9,8,1207,1120,312,37,424,51.1,40.5,0,1.7,3139.4400000000005,1930.0,234
2019/05/28 05:36,10,70,46,0.57,2.00,30,0.78,0.0,11,9,7,1198,1109,310,38,419,51.0,40.3,0,1.7,3139.4400000000005,2009.9999999999998,230
2019/05/28 05:38,14,78,47,0.65,2.00,32,0.78,1.4,11,9,4,1192,1102,309,39,416,50.9,40.1,0,1.7,3139.4400000000005,2050.0,248
2019/05/28 05:40,19,75,40,0.71,1.90,32,0.78,0.0,11,9,4,1191,1100,311,39,415,50.9,40.0,0,1.7,3139.4400000000005,2060.0,223
2019/05/28 05:42,19,73,27,0.71,1.90,32,0.79,1.3,11,9,3,1180,1084,309,40,412,50.9,39.7,0,1.7,3139.4400000000005,2140.0,235
2019/05/28 05:44,19,70,10,0.71,1.90,32,0.79,0.0,9,6,3,1163,1059,305,40,407,50.8,39.2,0,1.7,3139.4400000000005,2130.0,400
2019/05/28 05:46,8,58,10,0.50,1.80,32,0.79,0.0,9,6,2,1161,1055,306,41,407,50.9,39.0,0,1.6,3139.4400000000005,2130.0,356
2019/05/28 05:48,8,58,10,0.47,1.60,32,0.79,0.1,8,6,5,1149,1039,304,41,405,50.9,38.7,0,1.6,3139.4400000000005,2110.0,346
2019/05/28 05:50,4,47,9,0.44,1.60,20,0.79,0.0,8,6,5,1146,1034,305,42,405,50.9,38.5,0,1.6,3139.4400000000005,2100.0,334
2019/05/28 05:52,2,50,11,0.38,1.30,20,0.79,0.0,8,6,4,1247,1192,349,34,390,49.2,39.5,0,1.7,3261.36,2070.0,302
2019/05/28 05:54,2,40,10,0.36,1.30,20,0.79,0.0,6,5,4,1250,1192,350,35,392,49.0,39.5,0,1.7,3261.36,2050.0,268
2019/05/28 05:56,2,40,6,0.36,1.40,19,0.79,0.0,6,5,4,1251,1195,350,35,392,49.1,39.4,0,1.7,3261.36,2029.9999999999998,223
2019/05/28 05:58,2,33,4,0.29,1.40,18,0.79,2.9,5,4,3,1255,1193,354,36,395,48.8,39.4,0,1.7,3230.88,1990.0,214
2019/05/28 06:00,1,6,3,0.29,1.40,16,0.79,0.0,4,3,3,1257,1193,355,36,396,48.8,39.4,0,1.7,3200.4,1980.0,208
2019/05/28 06:02,1,5,3,0.25,1.30,16,0.79,0.0,4,3,3,1254,1194,355,36,395,48.8,39.5,0,1.7,3230.88,1980.0,56
2019/05/28 06:04,1,20,3,0.25,1.30,16,0.79,0.0,3,3,2,1264,1187,360,39,401,48.5,39.5,0,1.7,3169.92,1910.0,154
2019/05/28 06:06,1,3,3,0.23,1.30,7,0.79,0.0,3,3,3,1264,1186,360,39,401,48.4,39.5,0,1.7,3169.92,1910.0,124
2019/05/28 06:08,1,3,4,0.19,1.20,5,0.79,0.0,3,3,2,1266,1177,361,40,406,48.2,39.6,0,1.7,3169.92,1880.0,106
2019/05/28 06:10,1,2,4,0.13,1.20,5,0.79,0.0,3,3,3,1271,1169,362,42,409,48.0,39.6,0,1.7,3169.92,1830.0,82
2019/05/28 06:12,1,1,4,0.06,0.80,4,0.79,0.0,4,3,2,1255,1167,355,38,403,48.1,39.7,0,1.7,3169.92,1940.0,391
2019/05/28 06:14,1,1,2,0.05,0.70,2,0.50,0.0,4,3,2,1255,1158,354,39,407,47.9,39.8,0,1.7,3169.92,1930.0,378
2019/05/28 06:16,1,1,2,0.04,0.70,1,0.50,0.0,4,3,2,1253,1148,353,39,412,47.7,39.9,0,1.7,3169.92,1930.0,347
2019/05/28 06:18,1,1,2,0.00,0.70,1,0.50,0.0,4,3,3,1255,1141,354,40,415,47.6,39.9,0,1.7,3169.92,1900.0,322
2019/05/28 06:20,1,1,2,0.00,0.70,0,0.49,0.0,3,3,3,1254,1131,355,40,419,47.5,39.9,0,1.7,3169.92,1880.0,320
2019/05/28 06:22,1,1,2,0.00,0.70,0,0.46,0.0,3,3,2,1254,1115,357,42,422,47.4,39.9,0,1.7,3169.92,1830.0,314
2019/05/28 06:24,1,1,2,0.04,0.60,0,0.37,0.0,3,3,2,1254,1111,357,42,423,47.3,40.0,0,1.7,3169.92,1820.0,291
2019/05/28 06:26,1,1,2,0.05,0.70,0,0.35,0.0,3,3,3,1251,1098,358,42,425,47.3,40.0,0,1.7,3169.92,1810.0,294
2019/05/28 06:28,1,1,2,0.05,0.70,0,0.34,0.0,4,3,4,1247,1070,361,43,427,47.2,40.0,0,1.7,3169.92,1780.0,256
2019/05/28 06:30,1,1,2,0.09,0.90,0,0.22,0.0,4,3,3,1247,1069,361,43,427,47.2,40.0,0,1.7,3169.92,1780.0,268
2019/05/28 06:32,1,1,2,0.09,0.90,0,0.17,0.0,4,3,3,1239,1036,362,43,427,47.2,40.0,0,1.7,3169.92,1740.0,262
2019/05/28 06:34,1,1,3,0.09,1.00,0,0.17,0.0,7,4,4,1236,1028,362,43,428,47.2,40.0,0,1.7,3169.92,1730.0,225
2019/05/28 06:36,1,2,3,0.08,1.00,0,0.16,0.0,4,4,4,1220,986,363,44,426,47.2,40.0,0,1.7,3169.92,1710.0,71
2019/05/28 06:38,1,2,3,0.09,1.00,1,0.09,0.0,4,4,4,1207,953,361,45,420,47.2,39.9,0,1.7,3169.92,1690.0,104
2019/05/28 06:40,1,2,4,0.10,1.00,1,0.08,0.0,6,5,4,1205,951,360,45,420,47.2,39.9,0,1.7,3169.92,1690.0,86
2019/05/28 06:42,1,22,6,0.10,1.20,1,0.08,0.0,7,7,4,1191,917,357,46,413,47.1,39.8,0,1.7,3169.92,1650.0,103
2019/05/28 06:44,1,25,6,0.19,1.20,1,0.08,0.0,7,7,4,1182,896,355,46,409,47.0,39.7,0,1.7,3169.92,1640.0,105
2019/05/28 06:46,1,25,6,0.19,1.20,2,0.10,0.0,7,7,4,1178,888,354,46,407,46.9,39.7,0,1.7,3169.92,1640.0,93
2019/05/28 06:48,1,25,6,0.19,1.20,2,0.13,0.0,7,7,4,1167,862,349,47,401,46.7,39.5,0,1.7,3169.92,1610.0,101
2019/05/28 06:50,1,16,3,0.25,1.20,4,0.21,0.0,5,5,4,1166,855,348,47,398,46.6,39.5,0,1.7,3169.92,1600.0,102
2019/05/28 06:52,1,16,3,0.25,1.20,4,0.21,0.0,5,5,4,1162,843,344,47,393,46.5,39.4,0,1.7,3169.92,1590.0,97
2019/05/28 06:54,1,3,2,0.25,1.20,4,0.21,0.0,5,4,4,1152,812,336,48,379,46.2,39.0,0,1.7,3169.92,1560.0,101
2019/05/28 06:56,1,3,2,0.27,1.50,8,0.38,0.0,5,4,4,1295,950,342,49,393,44.3,39.7,0,1.7,3444.2400000000002,1560.0,100
2019/05/28 06:58,1,3,1,0.27,1.50,11,0.46,1.2,4,4,4,1292,937,341,50,386,43.8,39.7,0,1.7,3444.2400000000002,1540.0,91
2019/05/28 07:00,1,16,1,0.27,1.80,11,0.46,0.0,4,4,4,1292,937,341,50,386,43.8,39.7,0,1.7,3444.2400000000002,1540.0,99
2019/05/28 07:02,1,16,2,0.25,1.80,11,0.46,0.0,5,4,4,1286,911,342,49,378,42.9,39.9,0,1.7,3444.2400000000002,1520.0,43
2019/05/28 07:04,1,12,2,0.25,1.80,11,0.46,0.0,5,4,4,1280,895,344,49,373,42.2,39.9,0,1.7,3444.2400000000002,1500.0,121
2019/05/28 07:06,0,2,2,0.20,1.40,6,0.46,0.0,5,4,4,1278,889,345,49,372,42.0,39.9,0,1.7,3444.2400000000002,1500.0,204
2019/05/28 07:08,0,2,2,0.20,1.40,3,0.46,0.0,5,4,4,1274,880,345,48,370,41.5,39.9,0,1.7,3413.7599999999998,1500.0,218
2019/05/28 07:10,0,12,2,0.16,1.70,3,0.46,0.0,5,4,5,1269,860,346,47,369,40.3,40.1,0,1.7,3413.7599999999998,1510.0,111
2019/05/28 07:12,0,12,2,0.14,1.70,3,0.46,0.0,5,4,4,1264,844,346,46,368,39.7,40.1,0,1.7,3383.28,1510.0,113
2019/05/28 07:14,0,12,2,0.14,1.70,3,0.46,0.0,5,4,2,1258,832,345,48,369,40.0,40.1,0,1.7,3352.8,1500.0,237
2019/05/28 07:16,0,2,1,0.09,1.40,0,0.46,0.0,4,3,4,1256,810,346,46,369,39.0,40.3,0,1.7,3322.32,1530.0,89
2019/05/28 07:18,0,1,1,0.09,1.40,0,0.46,0.0,2,2,2,1247,788,343,47,371,39.0,40.3,0,1.7,3261.36,1520.0,49
2019/05/28 07:20,0,1,1,0.06,0.80,0,0.46,0.0,2,2,2,1247,788,343,46,371,39.0,40.3,0,1.7,3261.36,1530.0,54
2019/05/28 07:22,0,1,1,0.06,0.80,0,0.46,0.0,2,2,2,1236,764,337,48,373,39.1,40.3,0,1.7,3200.4,1520.0,119
2019/05/28 07:24,0,1,1,0.05,0.80,0,0.46,0.0,2,2,3,1239,729,339,44,377,38.4,40.6,0,1.7,3169.92,1570.0,67
2019/05/28 07:26,0,1,1,0.03,0.70,0,0.46,0.0,2,2,3,1239,732,338,45,376,38.4,40.5,0,1.7,3169.92,1570.0,71
